Find Starlink 30285

NORAD ID: 57840 Int'l Des: 2023-141 Owner: SPXS Country: US Constellation: starlink operational
LEOCIRCULAR

現在のビュー

3D地球を読み込み中...

About Starlink 30285

Starlink 30285 (NORAD 57840) is a starlink constellation satellite (v2 mini) launched Sep 12, 2023 by SPXS of US. It operates in LEO, CIRCULAR orbit with a mass of 730.00 kg.

Starlink 30285について

説明を読み込み中...

次回通過

Passes for default location (London). Set your location on the main map for personalized predictions.

高度履歴

Loading altitude history...

軌道要素

1 57840U 23141A 26170.24671872 -.00000629 00000-0 -84996-5 0 9998
2 57840 53.1600 171.9093 0001248 89.8829 270.2316 15.31696020155881
Epoch: Jun 19, 2026 • Age: 12 hours

現在のステータス

高度 484.4 km
速度 7.62 km/s
衛星直下点 -39.39°S, 49.5°W
打ち上げ日 Sep 12, 2023
運用期間 2.7 years
タイプ internet

技術仕様

分類 Payload
質量 730.00 kg
乾燥質量 700.00 kg
総質量 730.00 kg
長さ 0.30 m
直径 4.10 m
スパン 29.00 m
形状 Box + pan
製造者 SPXS
バスタイプ Starlink V2M
フェーズステータス In Orbit
所有者/国 SPXS/US

Most Searched